GEFSSGP_con_prob3kmehi_192.txt.gz
EHI
0 0 0 0 0 0 0 0 0 0 0 0 0 1 2 3 2 1 1 1 5 19 34 43 47 48 50 54 56 55 52 51 52 56 59 58 54 50 41 31 27 25 22 18 13 13 14 13 12
0 0 0 0 0 0 0 0 0 0 0 0 0 0 1 2 1 1 1 3 9 22 34 42 48 52 54 56 57 55 52 51 51 52 54 51 48 44 37 30 27 24 20 15 12 11 12 12 12
0 0 0 0 0 0 0 0 0 0 0 0 0 0 1 1 0 0 2 8 16 25 33 41 50 58 60 61 59 55 53 52 51 50 47 43 40 36 32 29 27 23 18 13 10 9 10 10 10
0 0 0 0 0 0 0 0 0 0 0 0 0 1 2 2 1 1 5 14 22 26 30 38 51 61 64 65 62 57 54 53 52 49 43 36 33 30 28 27 25 22 18 14 10 9 10 10 9
0 0 0 0 0 0 0 0 0 0 0 1 1 2 3 2 1 3 10 18 23 25 27 34 46 56 62 64 62 59 55 52 50 46 39 33 29 28 26 24 21 18 16 14 11 11 11 10 9
0 0 0 0 0 0 0 0 0 0 0 1 2 3 3 1 1 7 14 19 22 25 26 28 35 44 52 56 55 53 51 47 44 41 37 33 30 27 25 21 18 14 12 11 11 12 11 9 9
0 0 0 0 0 0 0 0 1 0 0 1 2 2 1 1 3 11 17 19 21 24 25 24 25 30 38 42 43 42 42 40 38 37 35 32 30 27 23 19 16 13 10 9 10 10 8 6 7
0 0 0 0 0 0 0 0 0 0 0 0 1 1 1 4 10 17 20 19 19 21 22 21 21 23 26 29 31 33 34 36 35 34 32 30 28 26 22 17 14 11 8 6 6 6 4 3 4
0 0 0 0 0 0 0 0 0 0 0 1 1 2 7 14 20 23 22 20 19 20 20 19 20 21 22 23 25 26 29 32 33 31 29 27 25 23 21 16 12 9 5 3 2 2 1 2 3
0 0 0 0 0 0 0 1 1 0 1 3 5 9 17 24 27 26 23 20 19 19 18 17 16 18 20 21 22 23 26 28 30 29 27 26 24 22 20 16 12 8 4 2 1 0 1 2 4
0 0 0 0 0 0 1 2 2 1 2 5 11 16 22 27 28 26 23 20 18 17 17 16 15 15 16 17 19 21 22 23 26 26 25 25 24 22 19 16 13 10 7 5 3 1 1 2 3
0 0 0 0 0 1 2 3 4 4 6 9 15 19 20 23 26 25 21 18 16 16 16 15 14 13 13 15 16 17 17 18 20 22 23 23 22 19 18 16 13 11 10 8 6 2 1 2 2
0 0 0 0 0 1 2 4 5 8 12 15 18 19 18 19 20 20 18 16 15 15 14 14 14 13 12 13 14 14 14 14 15 18 20 19 17 14 14 13 11 10 10 10 8 5 3 2 2
0 0 0 0 0 1 2 4 7 10 14 18 19 19 16 15 15 15 15 14 13 13 13 13 13 12 11 10 12 12 12 12 12 13 15 15 13 10 9 9 7 6 8 8 7 5 4 3 2
0 0 0 0 0 1 2 3 6 10 13 16 18 17 14 12 12 13 14 13 12 12 13 13 13 12 10 10 10 12 12 10 9 8 10 12 11 8 7 5 3 4 6 6 4 2 1 1 1
0 0 0 0 0 0 1 1 4 8 13 16 17 15 12 11 10 11 12 12 11 11 12 12 11 10 9 10 10 11 10 8 7 6 7 8 8 7 4 2 1 3 5 5 3 1 0 0 0
0 0 0 0 0 0 0 0 2 6 10 14 15 14 12 11 10 10 11 11 11 11 12 12 10 9 10 10 10 7 5 4 3 3 4 4 4 3 3 2 2 2 4 4 3 1 0 0 0
0 0 0 0 0 0 0 1 2 3 6 11 14 14 13 12 11 11 12 11 10 11 12 13 11 9 9 9 6 3 2 1 1 1 1 1 1 2 3 2 2 3 4 4 4 3 1 0 1
0 0 0 0 0 0 0 1 2 1 4 9 13 14 13 12 11 12 11 9 8 9 10 11 10 8 7 6 3 0 1 1 1 0 0 0 1 2 3 2 3 5 5 3 3 4 3 2 2
0 0 0 0 0 0 0 1 2 1 2 7 12 13 13 13 12 11 9 8 6 6 5 5 5 4 4 3 1 0 1 2 1 0 0 0 1 2 3 3 4 5 5 3 3 4 5 4 3
0 0 0 0 0 0 0 1 1 0 1 5 9 11 12 12 11 9 8 6 5 3 2 1 1 1 2 2 1 0 0 1 1 0 0 0 0 1 2 3 4 4 4 4 4 4 5 5 4
0 0 0 0 0 0 0 0 0 0 1 3 5 8 9 9 8 7 6 5 3 1 1 1 1 1 1 1 0 0 0 0 0 0 0 0 0 0 1 3 3 4 4 4 4 3 4 4 4
0 0 0 0 0 0 0 0 0 0 1 2 3 4 6 7 7 6 4 3 2 1 1 2 1 0 0 0 0 0 0 0 0 0 0 0 0 0 1 3 3 3 3 3 2 2 2 2 2
0 0 0 0 0 0 0 0 0 0 0 1 1 2 3 5 5 5 3 2 1 0 1 2 2 1 0 0 0 0 0 0 0 0 0 0 0 0 1 2 2 2 1 1 1 0 1 1 1
0 0 0 0 0 0 0 0 0 0 0 0 0 0 1 3 3 2 2 1 0 1 2 3 3 2 1 1 0 0 0 0 0 0 0 0 0 0 1 1 1 1 0 0 0 0 0 0 0
0 0 0 0 0 0 0 0 0 0 0 0 0 0 1 1 1 0 0 0 0 1 2 3 3 3 3 2 1 0 0 0 0 0 0 0 0 0 0 0 0 0 0 0 0 0 0 0 0
0 0 0 0 0 0 1 1 1 0 0 0 0 0 0 0 0 0 0 0 0 1 2 3 3 3 3 3 2 1 0 0 0 0 0 0 0 0 0 0 0 0 0 0 0 0 0 0 0
0 0 0 0 0 0 1 2 2 0 0 0 0 0 0 0 0 0 0 0 0 0 1 2 3 3 3 3 2 1 0 0 0 0 0 0 0 0 0 0 0 0 0 0 0 0 0 0 0
0 0 0 0 0 0 1 2 1 0 0 0 0 0 0 0 0 0 0 0 0 0 0 1 3 3 3 3 1 0 0 0 0 0 0 0 0 0 0 0 0 0 0 0 0 0 0 0 0
0 0 0 0 0 0 1 2 1 0 0 0 0 0 0 0 0 0 0 0 0 0 0 1 2 3 3 2 1 0 0 0 0 0 0 0 0 0 0 0 0 0 0 0 0 0 0 0 0

GEFSSGP_con_prob3kmehi_198.txt.gz
EHI
0 0 0 0 0 0 0 0 0 0 0 1 1 2 2 2 1 0 1 4 11 22 35 43 48 47 40 35 35 39 44 48 51 52 51 46 40 35 30 27 23 20 19 13 8 5 5 4 4
0 0 0 0 0 0 0 0 0 0 0 0 1 1 1 1 0 1 2 5 9 19 30 39 46 46 41 37 38 41 45 47 49 51 51 47 39 32 28 26 23 20 18 15 11 7 5 5 4
0 0 0 0 0 0 0 0 0 0 0 0 0 0 0 0 0 2 5 6 9 15 25 34 42 44 41 39 41 44 44 44 45 46 48 46 40 32 28 26 23 19 16 16 14 10 7 6 5
0 0 0 0 0 0 0 0 0 0 0 0 0 0 1 1 1 2 5 8 11 15 22 31 38 41 41 39 41 44 43 42 42 42 44 44 41 35 30 26 22 17 14 14 13 11 8 6 6
0 0 0 0 0 0 0 0 0 0 0 0 0 0 1 1 1 3 6 11 15 18 22 28 34 37 38 37 39 41 42 41 41 41 42 42 40 35 30 26 21 16 12 10 10 9 7 6 6
0 0 0 0 0 0 0 0 0 0 0 0 0 0 1 1 1 4 9 15 18 21 23 26 30 32 33 33 35 38 41 41 41 41 42 41 38 33 28 23 19 16 13 11 9 9 8 6 6
0 0 0 0 0 0 0 0 0 0 1 1 1 0 0 1 2 5 12 17 20 21 23 25 27 27 28 28 29 33 37 40 40 39 38 37 34 30 25 22 19 16 15 13 12 11 8 6 5
0 0 0 0 0 0 0 0 0 0 1 2 2 1 2 5 6 7 12 18 21 22 23 24 25 25 24 23 25 28 32 36 37 35 32 30 28 25 22 20 20 18 16 14 13 11 8 4 3
0 0 0 0 0 0 0 0 0 0 1 2 2 4 6 8 8 9 12 17 20 22 23 23 23 23 21 21 22 24 25 26 27 26 24 21 18 17 15 17 21 20 16 13 11 10 7 3 2
0 0 0 0 0 0 0 0 0 0 1 2 3 6 9 9 8 9 11 14 17 21 22 21 20 20 19 19 20 20 18 17 16 17 19 17 13 11 11 16 21 19 14 11 11 9 7 3 1
0 0 0 0 0 0 0 0 0 0 1 2 5 9 11 11 10 10 12 14 16 18 19 17 18 19 18 17 18 19 18 16 16 20 22 20 17 14 14 18 19 15 11 11 12 11 7 3 1
0 0 0 0 0 0 0 0 0 2 3 4 7 11 14 13 11 13 16 17 17 17 16 15 17 20 21 20 20 22 22 21 24 29 30 27 23 20 19 20 17 14 13 13 13 12 9 7 4
0 0 0 0 0 0 0 0 1 4 6 7 9 12 14 12 12 14 18 20 20 18 16 16 19 24 24 25 25 23 22 23 27 32 32 28 26 23 20 18 15 14 14 14 13 12 12 10 8
0 0 0 0 0 0 0 0 2 5 8 9 10 11 11 10 11 14 17 18 19 19 18 18 21 23 24 25 26 22 19 21 25 28 27 27 26 24 19 15 14 14 13 14 14 13 13 11 10
0 0 0 0 0 0 0 0 3 6 8 10 11 10 9 9 11 12 14 14 15 17 18 19 19 19 20 22 22 20 18 19 21 22 23 23 24 24 21 16 14 14 15 17 16 14 12 12 12
0 0 0 0 0 0 0 1 3 5 7 9 10 8 10 12 12 11 10 11 13 14 17 19 17 17 19 19 19 18 18 17 16 17 19 19 20 21 21 17 14 15 16 17 16 13 11 11 13
0 0 0 0 0 0 0 1 2 3 5 7 7 8 11 15 14 12 10 10 12 13 16 17 16 16 19 20 19 18 17 15 13 12 13 15 15 16 16 13 12 13 15 14 13 12 10 9 10
0 0 0 0 0 0 0 1 2 4 5 6 6 8 11 14 15 14 11 11 13 15 16 16 15 16 20 22 21 18 14 12 11 9 9 10 11 11 10 10 11 12 14 13 12 12 10 8 8
0 0 0 0 0 0 0 2 3 5 7 7 7 8 9 11 14 16 15 15 16 17 15 15 15 17 20 21 19 16 11 9 9 7 6 7 7 6 6 8 11 14 14 13 12 12 10 8 8
0 0 0 0 0 0 0 1 3 6 8 8 7 8 8 9 13 17 19 19 18 16 13 13 15 17 17 17 17 14 10 8 7 6 5 5 4 4 4 5 10 13 15 13 13 14 11 8 8
0 0 0 0 0 0 0 1 2 5 7 7 7 7 7 9 13 16 18 18 17 14 11 12 14 15 13 14 13 11 8 6 5 5 4 4 4 5 5 6 8 11 13 13 14 15 14 10 7
0 0 0 0 0 0 0 1 2 4 5 6 6 5 6 8 11 13 14 14 13 11 10 10 12 12 10 10 9 8 6 3 2 2 2 3 4 6 7 7 8 9 10 11 12 12 14 11 7
0 0 0 0 0 0 0 0 1 3 4 4 6 6 5 7 9 11 11 10 8 7 6 7 9 10 7 6 5 6 5 2 0 1 1 1 4 6 6 7 9 9 9 9 9 10 11 10 8
0 0 0 0 0 0 0 0 1 2 3 3 5 5 4 5 8 9 9 7 4 3 3 4 6 8 6 4 3 4 4 2 1 2 1 1 2 4 5 6 8 9 7 7 7 7 6 6 7
0 0 0 0 0 0 0 0 0 1 2 2 3 3 2 4 5 6 6 5 3 2 2 3 4 5 4 3 3 3 3 3 3 3 2 1 0 2 3 4 5 5 5 4 5 4 3 3 4
0 0 0 0 0 0 0 0 1 1 1 1 1 1 1 1 2 4 5 5 2 1 2 2 2 2 2 2 3 4 3 3 3 3 3 1 1 1 1 2 2 2 2 2 2 3 3 3 3
0 0 0 0 0 0 0 1 1 1 0 0 0 0 0 0 1 3 5 5 2 0 1 1 1 1 1 2 3 4 4 3 3 3 3 2 1 0 0 0 0 1 1 1 2 2 2 3 3
0 0 0 0 0 0 0 1 1 1 0 0 0 0 0 0 1 3 5 4 1 0 0 0 1 2 2 3 3 4 4 3 3 3 3 2 1 0 0 0 0 0 0 1 1 1 1 1 1
0 0 0 0 0 0 0 0 1 1 0 0 0 0 0 0 0 1 3 3 1 0 0 1 1 3 3 4 5 6 5 4 4 3 3 1 0 0 0 0 0 0 0 0 0 0 0 0 0
0 0 0 0 0 0 0 0 1 1 1 0 0 0 0 0 0 1 2 1 0 0 1 2 2 3 3 4 6 7 7 6 5 4 2 1 0 0 0 0 0 0 0 0 0 0 0 0 0

GEFSSGP_con_prob3kmehi_204.txt.gz
EHI
0 0 0 0 0 0 0 0 1 2 2 2 2 1 0 2 6 7 7 15 32 42 43 44 44 41 37 32 29 28 26 23 22 18 13 8 6 5 6 8 9 10 10 9 7 5 4 3 3
0 0 0 0 0 0 0 0 1 2 1 1 1 0 1 2 6 8 8 17 31 41 42 42 43 42 38 34 30 29 28 26 23 20 14 9 7 6 5 6 7 8 8 8 7 5 2 2 2
0 0 0 0 0 0 1 1 1 1 0 0 0 1 2 4 6 9 12 17 30 41 43 42 41 41 40 37 33 31 30 28 26 23 19 14 11 8 4 2 3 4 5 5 5 5 4 3 3
0 0 0 0 1 1 1 1 1 1 1 0 0 2 5 7 8 11 12 17 29 41 42 39 39 39 40 40 36 32 31 30 28 25 23 21 17 11 5 2 1 2 2 3 5 6 6 6 5
0 0 0 1 2 2 2 1 1 2 1 0 0 2 7 10 10 10 10 14 25 36 38 37 38 38 38 40 38 33 31 30 28 25 25 25 22 16 11 6 3 2 2 2 5 7 7 7 6
0 0 0 2 3 3 2 2 2 2 2 0 0 3 7 10 9 7 6 10 20 31 36 36 36 36 38 41 39 33 30 30 29 27 26 26 24 20 16 11 6 4 4 4 6 7 7 6 5
0 0 0 1 2 3 2 1 1 2 2 1 1 3 8 11 10 7 5 8 17 27 34 36 35 35 38 40 38 33 30 31 32 31 28 25 22 19 16 13 10 7 6 5 6 7 8 7 5
0 0 0 0 1 2 1 0 1 2 3 3 3 6 12 15 15 12 8 9 14 23 30 33 34 33 34 36 35 32 32 34 36 33 29 24 18 16 16 16 15 14 10 7 6 7 9 9 6
0 0 0 0 0 1 1 0 1 2 4 5 6 10 14 17 18 16 13 13 17 21 26 29 31 29 28 30 30 30 31 35 36 33 30 25 18 16 17 19 23 23 17 11 9 9 9 8 6
0 0 0 0 0 0 0 0 0 1 4 7 10 12 13 15 17 17 17 19 22 23 25 28 27 25 25 27 28 27 29 33 34 32 30 26 22 19 17 22 30 29 23 17 15 14 11 8 6
1 0 0 0 0 0 0 0 0 1 4 7 11 13 12 14 16 16 18 22 23 24 26 28 28 28 28 29 29 28 29 33 35 35 33 29 28 25 22 26 31 29 23 19 18 18 16 12 10
1 0 0 0 0 0 0 0 0 2 4 7 11 14 15 16 16 16 18 21 23 25 27 29 32 36 37 36 33 30 30 34 39 42 40 34 31 28 25 26 28 25 22 20 20 20 19 15 12
1 0 0 0 0 0 0 0 1 3 5 7 10 15 16 17 17 19 21 23 25 27 26 28 35 43 44 43 40 35 34 36 41 46 44 37 31 27 25 26 27 23 21 21 21 20 19 15 11
0 0 0 0 0 0 0 0 1 3 5 6 9 13 15 15 18 21 22 24 25 25 25 28 35 41 43 43 42 38 37 38 41 45 44 38 32 28 28 30 30 24 19 19 20 19 18 15 12
0 0 0 0 0 0 0 1 3 5 4 5 8 12 16 17 19 21 23 25 25 26 28 29 30 33 36 36 36 35 36 39 40 41 42 39 34 31 32 34 33 27 21 20 22 23 21 16 13
0 0 0 0 0 0 0 2 6 6 5 6 10 15 19 21 20 21 24 26 27 30 32 30 27 30 33 31 28 29 32 34 33 34 36 37 33 30 31 32 32 30 26 23 24 24 21 16 12
0 0 0 0 0 0 1 4 7 7 6 9 13 16 21 23 20 21 24 26 28 32 34 32 30 31 31 28 26 27 28 26 24 24 28 29 26 24 25 25 26 28 27 23 20 20 18 13 10
0 0 0 0 0 1 2 4 6 8 10 12 14 16 21 23 22 22 24 25 27 30 33 33 32 30 28 26 26 27 25 22 19 19 21 20 18 18 18 17 18 22 22 19 18 17 14 12 10
0 0 0 0 0 1 3 4 7 10 12 12 13 15 18 22 23 23 23 23 24 27 31 33 31 29 26 25 26 23 20 18 16 16 16 14 13 13 13 12 13 16 17 16 18 18 14 11 10
0 0 0 0 1 2 2 3 6 10 11 10 9 10 13 18 20 22 22 21 22 27 31 32 31 28 25 26 24 20 16 15 14 14 13 12 11 12 11 11 11 12 14 16 18 18 14 10 8
0 0 0 0 1 2 1 2 6 9 9 8 6 6 10 15 18 20 20 18 18 24 29 31 31 29 27 24 21 18 15 14 12 11 12 11 10 10 10 10 9 9 11 14 15 15 14 11 8
0 0 0 0 1 1 0 1 5 8 8 7 6 6 8 11 14 16 17 15 13 17 24 28 29 29 26 21 18 17 15 12 9 8 9 9 8 8 8 8 6 6 7 10 12 13 13 12 9
0 0 0 0 0 0 0 1 4 8 7 6 6 6 6 8 10 13 14 13 11 12 17 22 25 25 22 18 16 15 12 8 7 8 9 8 7 6 6 6 5 4 6 9 11 12 12 11 9
0 0 0 0 0 0 0 1 4 7 6 4 5 5 5 5 7 10 12 13 12 12 13 16 19 21 19 15 12 10 7 5 6 8 8 8 7 6 6 5 5 6 7 9 11 12 11 10 9
0 0 0 0 0 0 0 1 4 6 5 4 5 5 4 5 7 10 12 13 13 13 12 12 14 15 14 11 8 7 5 4 6 6 7 6 6 6 6 3 3 6 8 8 8 10 11 10 8
0 0 0 0 0 0 0 1 4 5 4 5 5 5 4 5 7 9 11 13 13 13 12 11 11 12 12 9 7 7 6 6 6 6 5 4 4 4 4 3 2 4 4 5 6 7 8 7 5
0 0 0 0 0 0 0 1 3 4 4 4 4 4 4 6 7 8 9 11 14 15 13 11 11 11 11 9 7 7 8 8 8 8 6 4 4 3 3 3 3 3 3 4 4 4 4 3 3
0 0 0 0 0 0 0 0 1 2 3 3 3 4 5 6 8 8 8 10 15 16 13 11 10 10 9 8 7 8 9 10 9 8 8 7 6 4 4 3 3 3 3 4 2 1 1 1 1
0 0 0 0 0 0 0 0 1 2 2 2 3 4 5 7 8 9 8 10 13 12 11 10 10 9 7 7 7 7 8 9 9 7 8 9 8 7 5 3 2 1 2 1 1 0 0 0 0
0 0 0 0 0 0 0 0 1 2 2 2 3 4 5 7 8 7 8 10 10 9 8 9 9 8 7 7 7 7 7 8 8 7 7 9 10 9 6 3 1 0 0 0 0 0 0 0 0

GEFSSGP_con_prob3kmehi_210.txt.gz
EHI
0 0 0 0 0 0 0 0 0 0 0 0 0 1 3 4 4 3 2 6 13 19 23 28 36 41 41 38 35 34 32 28 24 21 21 23 24 22 18 14 13 10 7 6 7 7 6 4 3
0 0 0 0 0 0 0 0 0 0 0 0 1 2 4 4 4 3 4 9 16 20 22 27 36 41 41 37 33 31 30 26 22 19 18 18 19 19 16 13 11 9 6 4 5 6 6 4 3
0 0 0 0 0 0 0 0 0 0 0 0 1 3 4 5 5 6 8 13 18 20 20 27 38 44 43 37 31 29 27 22 18 16 14 13 14 15 14 11 9 6 4 2 2 4 4 4 5
0 0 0 1 1 1 0 0 0 0 0 0 1 3 5 6 8 11 14 18 19 18 18 27 40 47 46 40 34 30 26 21 17 13 11 10 10 11 12 11 8 4 2 1 1 2 3 5 6
0 0 1 2 2 2 1 0 0 0 0 0 1 3 4 7 13 18 18 18 18 17 18 26 38 45 45 42 39 35 28 22 19 14 11 9 8 10 11 11 8 5 2 2 2 2 2 4 5
0 1 2 2 3 2 1 0 0 0 0 1 2 3 3 8 17 21 19 17 18 18 18 22 30 37 38 38 39 36 30 24 21 17 12 9 9 9 10 10 9 5 3 3 2 1 1 3 3
0 1 2 2 1 1 1 0 0 0 0 1 2 2 3 7 13 18 18 17 19 20 17 16 20 24 27 31 33 32 29 25 22 19 14 11 10 9 9 9 9 6 4 3 3 1 1 3 3
0 0 1 1 1 0 0 0 0 1 1 2 3 3 5 9 12 15 16 16 18 18 14 11 11 11 16 22 25 25 24 24 22 19 16 14 13 10 9 9 9 7 4 3 3 3 3 3 4
0 0 0 0 0 0 0 0 0 2 3 5 7 9 12 16 18 17 16 15 15 13 9 7 7 6 9 16 19 18 19 21 20 18 17 17 16 14 11 9 9 7 4 3 5 5 4 4 4
0 0 0 0 0 0 0 0 1 2 5 7 10 14 17 20 20 19 17 15 13 9 6 6 7 7 8 11 14 15 17 19 18 16 15 15 17 16 14 11 9 7 5 5 6 5 4 4 4
0 0 0 0 0 0 0 1 1 2 5 8 12 16 18 20 19 19 18 16 12 9 8 9 9 8 8 9 11 13 15 17 17 16 14 13 15 16 15 13 9 7 7 7 6 4 3 3 2
0 0 0 0 0 0 0 0 1 2 5 7 12 17 18 18 18 18 19 17 13 10 10 10 9 9 8 8 9 11 12 13 15 14 13 13 15 14 13 11 9 8 9 9 6 3 3 2 2
0 0 0 0 0 0 0 0 1 3 5 8 12 16 17 17 17 18 19 18 14 11 9 8 8 8 7 6 7 7 7 9 11 11 11 12 12 10 9 8 7 6 8 8 5 3 2 2 3
0 0 0 0 0 0 0 1 2 4 7 11 13 15 18 18 18 18 18 17 14 10 8 8 8 8 7 6 5 5 4 5 6 7 8 7 6 6 6 6 4 3 3 4 2 1 1 1 2
0 0 0 0 0 0 1 1 2 6 10 14 15 15 19 21 22 21 19 17 14 11 9 10 9 9 9 9 8 5 3 3 3 4 4 3 3 2 3 3 1 0 0 1 1 0 0 0 1
0 0 0 0 0 0 1 2 3 7 12 15 16 17 19 21 23 24 21 16 13 12 10 11 12 13 12 11 10 6 4 3 3 2 2 2 1 1 2 1 0 0 0 0 0 0 0 0 0
0 0 0 0 0 0 1 2 3 6 10 13 14 16 17 18 21 22 19 15 13 12 10 10 13 15 13 11 9 6 4 3 3 3 3 3 1 1 1 1 0 0 0 0 0 0 0 0 0
0 0 0 0 0 0 0 1 2 4 7 9 11 13 15 15 17 18 16 13 13 11 8 7 9 11 11 10 9 7 5 4 4 4 3 2 1 0 0 0 0 0 0 0 0 0 0 0 0
0 0 0 0 0 0 0 1 1 2 4 6 7 10 13 14 15 16 14 12 12 9 6 5 6 7 8 9 9 7 6 5 4 3 2 1 0 0 0 0 0 0 0 0 0 0 0 0 0
0 0 0 0 0 0 1 2 1 1 3 4 5 8 10 12 14 15 14 12 11 9 8 6 5 5 7 8 8 7 6 5 3 2 1 0 0 0 0 0 0 0 0 0 0 0 0 0 0
0 0 0 0 0 0 1 2 3 2 3 3 4 5 7 9 12 14 14 13 12 11 10 9 7 6 6 6 6 6 6 4 3 1 1 1 1 0 0 0 0 0 0 0 0 0 0 0 0
0 0 0 0 0 0 1 2 3 3 3 3 3 3 4 7 10 13 14 13 11 11 11 9 7 5 4 4 4 4 4 3 2 1 1 1 2 1 0 0 0 0 0 0 0 0 0 0 0
0 0 0 0 0 0 0 0 1 2 2 2 2 2 3 4 7 11 12 10 9 9 9 8 6 4 3 3 2 1 1 1 1 1 0 1 1 1 0 0 0 0 0 0 0 0 0 0 0
0 0 0 0 0 0 0 0 0 0 1 1 1 1 2 3 5 8 9 9 8 8 8 8 6 4 2 1 1 0 0 0 0 0 0 0 0 0 0 0 0 0 0 0 0 0 0 0 0
0 0 0 0 0 0 0 0 0 0 0 0 0 1 1 1 4 7 8 8 8 8 8 7 5 2 1 0 0 0 0 0 0 0 0 0 0 0 0 0 0 0 0 0 0 0 0 0 0
0 0 0 0 0 0 0 0 0 0 0 0 0 0 0 1 3 6 7 8 8 7 6 5 2 1 0 0 0 0 0 0 0 0 0 0 0 0 0 0 0 0 0 0 0 0 0 0 0
0 0 0 0 0 0 0 0 0 0 1 1 0 0 0 1 2 4 6 8 8 7 5 2 0 0 0 0 0 0 0 0 0 0 0 0 0 0 0 0 0 0 0 0 0 0 0 0 0
0 0 0 0 0 0 0 0 0 0 1 1 0 0 0 0 1 3 6 7 6 5 4 2 1 1 0 0 0 0 0 0 0 0 0 0 0 0 0 0 0 0 0 0 0 0 0 0 0
0 0 0 0 0 0 0 0 0 1 1 1 0 0 0 0 0 2 5 5 4 4 3 3 2 2 1 1 0 0 0 0 0 0 0 0 0 0 0 0 0 0 0 0 0 0 0 0 0
0 0 0 0 0 0 0 0 1 2 2 1 1 1 1 0 0 2 4 5 4 3 3 3 3 3 2 2 1 0 0 0 0 0 0 0 0 0 0 0 0 0 0 0 0 0 0 0 0

GEFSSGP_con_prob3kmehi_216.txt.gz
EHI
0 0 0 0 0 0 0 0 0 0 0 0 1 3 5 5 4 3 1 2 8 20 29 35 36 35 34 35 38 43 44 43 46 47 44 42 40 36 31 26 21 18 17 14 10 7 3 2 4
0 0 0 0 0 0 0 0 0 0 0 0 0 2 3 4 6 5 3 4 12 21 27 32 35 35 34 35 38 40 39 38 41 42 40 39 38 34 30 25 20 16 14 12 8 5 2 2 3
0 0 0 0 0 0 0 0 0 0 0 0 0 1 2 3 6 6 6 10 17 23 25 28 33 35 35 37 39 39 36 35 37 38 38 36 35 33 29 25 19 13 10 8 5 2 1 1 1
0 0 0 0 0 0 0 0 0 0 0 0 0 0 1 2 4 7 9 14 19 22 21 23 30 35 36 38 40 40 38 36 36 38 37 34 32 30 27 23 18 11 6 5 3 2 0 0 1
0 0 0 0 0 0 0 0 0 0 0 0 0 0 1 2 5 9 12 13 16 19 17 19 26 34 38 37 37 39 40 39 38 37 35 32 29 25 22 19 15 9 5 3 3 2 1 0 1
0 0 0 0 0 0 0 1 1 1 0 0 0 1 3 5 8 11 12 12 13 15 14 15 21 30 35 35 34 37 39 38 37 35 32 28 24 20 17 15 12 8 5 2 3 3 1 1 0
0 0 0 0 0 0 0 1 1 1 0 0 1 3 5 8 12 15 14 13 12 13 12 11 14 20 24 27 30 33 32 30 30 29 28 24 19 15 13 13 12 9 5 3 3 3 2 1 1
0 0 0 0 0 0 0 0 0 0 0 0 1 3 6 11 16 18 15 13 11 10 9 8 7 9 13 17 21 24 24 22 21 23 25 23 17 13 11 12 11 8 5 4 3 3 2 1 1
0 0 0 0 0 0 0 0 0 0 0 0 0 3 8 14 17 17 14 12 10 8 5 5 5 6 8 10 11 14 16 17 17 18 21 23 20 15 12 10 8 7 6 4 4 4 3 2 1
0 0 0 0 0 0 0 0 0 0 0 0 1 5 11 15 15 13 11 10 8 6 4 4 5 7 8 7 8 10 13 15 15 15 18 21 21 18 14 10 8 8 6 5 4 4 4 3 3
0 0 0 0 0 0 0 0 0 0 0 1 4 10 13 14 12 10 8 6 5 4 3 4 5 6 7 6 7 9 11 13 14 15 17 19 19 18 16 14 12 11 11 9 6 5 4 4 5
0 0 0 0 0 0 0 0 0 0 0 2 7 12 15 14 11 8 6 5 3 3 3 3 3 4 4 4 4 6 8 10 11 13 15 17 17 17 16 16 15 15 16 15 11 8 7 6 5
0 0 0 0 0 0 1 1 1 1 0 3 9 13 14 13 10 8 7 5 4 3 3 2 2 2 2 2 1 2 4 7 8 9 12 14 14 14 14 15 15 15 16 15 12 10 9 6 4
0 0 0 0 0 0 1 2 2 1 1 5 9 12 11 10 9 8 6 4 4 4 2 1 0 1 1 0 0 0 1 3 4 5 7 9 10 11 13 13 12 11 11 10 8 6 6 4 2
0 0 0 0 0 0 1 2 1 1 3 7 10 10 9 8 8 6 4 3 4 3 1 0 0 0 0 0 0 0 0 1 1 1 3 5 7 8 9 9 8 7 7 7 5 3 2 1 1
0 0 0 0 0 0 0 0 1 2 6 9 10 10 9 8 6 4 3 3 2 1 0 0 0 0 0 0 0 1 0 0 0 1 1 3 4 5 5 4 4 4 4 5 3 1 0 0 0
0 0 0 0 0 0 0 0 1 3 6 9 10 10 9 7 4 3 2 1 1 1 1 0 0 0 0 0 0 1 1 1 1 1 1 1 1 2 2 2 2 2 2 3 2 1 0 0 0
0 0 0 0 0 0 0 0 0 1 4 6 8 8 7 6 4 3 2 2 2 3 3 1 0 0 0 0 1 1 2 2 1 1 1 1 1 0 0 0 0 0 1 1 1 1 0 0 0
0 0 0 0 0 0 0 0 0 1 3 4 5 6 6 5 4 4 4 5 5 5 4 2 0 0 0 1 2 3 3 3 3 2 2 2 1 0 0 0 0 0 0 0 0 0 0 0 0
0 0 0 0 0 0 0 0 0 2 3 3 3 4 4 4 4 5 7 8 8 6 4 2 0 0 0 1 3 3 3 3 3 3 3 2 1 0 0 0 0 0 0 0 0 0 0 0 0
0 0 0 0 0 0 0 0 0 1 2 2 2 2 2 2 4 7 9 10 9 7 5 2 1 0 1 2 3 3 3 2 3 3 2 1 0 0 0 0 0 0 0 0 0 0 0 0 0
0 0 0 0 0 0 0 0 0 0 1 1 1 1 0 1 3 6 9 10 9 7 5 3 1 0 2 3 3 3 3 3 2 2 1 0 0 0 0 0 0 0 0 0 0 0 0 0 0
0 0 0 0 0 0 0 0 0 0 0 0 0 0 0 0 1 4 7 9 8 7 6 3 0 0 1 3 3 3 3 2 1 1 0 0 0 0 0 0 0 0 0 0 0 0 0 0 0
0 0 0 0 0 0 0 0 0 0 0 0 0 0 0 0 0 2 6 8 7 7 6 4 1 0 1 2 2 2 2 1 0 0 0 0 0 0 0 0 0 0 0 0 0 0 0 0 0
0 0 0 0 0 0 0 0 0 0 0 0 0 0 0 0 0 2 5 7 7 7 7 5 2 0 0 1 1 1 1 0 0 0 0 0 0 0 0 0 0 0 0 0 0 0 0 0 0
0 0 0 0 0 0 0 0 0 0 0 0 0 0 0 0 0 1 4 6 6 6 7 6 2 0 0 0 0 0 0 0 0 0 0 0 0 0 0 0 0 0 0 0 0 0 0 0 0
0 0 0 0 0 0 0 0 0 0 0 0 0 0 0 0 0 0 2 5 6 6 7 6 3 1 0 0 0 0 0 0 0 0 0 0 0 0 0 0 0 0 0 0 0 0 0 0 0
0 0 0 0 0 0 0 0 0 0 0 0 0 0 0 0 0 0 1 3 6 6 6 5 4 2 1 0 0 0 0 0 0 0 0 0 0 0 0 0 0 0 0 0 0 0 0 0 0
0 0 0 0 0 0 0 0 0 0 0 0 0 0 0 0 0 0 0 2 4 5 4 4 3 3 1 0 0 0 0 0 0 0 0 0 0 0 0 0 0 0 0 0 0 0 0 0 0
0 0 0 0 0 0 0 0 0 0 0 0 0 0 0 0 0 0 0 1 3 4 4 3 3 3 2 1 0 0 0 0 0 0 0 0 0 0 0 0 0 0 0 0 0 0 0 0 0

GEFSSGP_con_prob3kmehi_222.txt.gz
EHI
0 0 0 0 0 0 0 0 0 0 0 0 0 0 1 1 2 4 6 7 10 17 27 33 32 27 24 26 30 34 38 41 40 36 36 39 40 36 32 31 27 20 16 16 14 12 12 11 9
0 0 0 0 0 0 0 0 0 0 0 1 1 1 2 1 1 3 5 7 9 15 23 30 32 28 23 25 29 33 38 42 41 39 38 40 40 37 34 32 27 20 16 14 12 10 10 10 9
0 0 0 0 0 0 0 0 1 1 1 2 3 3 2 1 1 2 5 7 9 13 19 27 31 28 23 24 28 33 37 41 42 43 43 41 39 36 34 30 25 21 17 14 10 8 8 8 9
0 0 0 0 0 0 0 1 2 2 2 3 4 4 3 2 1 3 5 8 9 12 18 25 29 27 23 24 28 31 34 38 41 43 44 41 37 33 30 26 23 20 18 14 10 8 7 7 7
0 0 0 0 0 0 0 1 2 3 3 3 4 5 5 5 4 5 6 8 9 12 17 23 27 25 23 25 28 28 28 32 37 40 40 38 34 29 25 22 19 17 15 13 10 7 6 6 7
0 0 0 0 0 0 0 0 1 3 3 3 4 6 7 8 8 7 7 8 8 10 14 19 21 20 19 21 24 24 24 26 30 33 34 33 30 26 23 19 15 12 10 10 9 8 7 6 6
0 0 0 0 0 0 0 0 1 2 3 3 4 5 9 11 11 9 8 8 7 7 9 11 12 13 13 14 17 18 18 20 23 25 26 26 25 24 21 17 13 10 9 7 7 7 7 5 4
0 0 0 0 0 0 0 0 0 2 3 3 4 6 10 14 13 11 9 8 7 6 5 6 6 6 8 10 11 11 12 13 16 17 19 18 18 18 17 15 12 10 8 7 5 6 5 4 3
0 0 0 0 0 0 0 0 1 2 3 4 5 7 12 16 15 12 10 9 8 7 5 5 5 4 5 7 8 8 8 9 11 12 13 11 10 11 12 13 13 10 8 6 5 4 4 4 4
0 0 0 0 0 0 0 0 1 2 4 5 8 11 15 18 17 14 10 8 8 8 7 6 5 4 4 5 7 8 9 9 10 9 10 10 10 11 12 15 16 13 9 7 6 4 4 5 6
0 0 0 0 0 0 0 0 1 2 4 6 10 15 19 20 18 14 10 7 6 7 7 6 5 4 4 5 7 9 10 12 12 11 11 13 16 17 17 19 20 17 13 11 9 6 5 6 6
0 0 0 0 0 1 1 2 3 3 4 7 11 17 20 20 17 15 12 10 8 8 8 7 5 5 5 6 7 8 9 11 12 12 13 15 19 21 21 22 22 19 17 16 13 8 5 5 4
0 0 0 0 1 2 3 4 5 4 4 7 12 17 18 17 17 17 15 12 12 10 9 8 6 6 7 7 7 6 7 8 8 10 12 13 16 18 19 19 19 17 15 15 14 9 6 6 5
0 0 0 0 1 2 3 5 5 4 5 8 13 17 17 16 18 19 17 14 12 10 8 7 7 7 7 8 7 5 4 5 5 7 9 10 12 14 14 13 14 13 11 11 12 11 9 7 6
0 0 0 0 0 1 2 3 4 4 5 8 11 14 15 14 16 19 18 15 13 12 10 8 7 8 9 9 7 5 5 5 5 6 7 7 8 10 11 10 10 10 10 10 11 11 10 7 4
0 0 0 0 0 0 1 2 3 4 5 7 8 11 12 11 12 15 15 15 16 17 15 11 9 10 11 11 9 7 8 7 6 6 6 5 5 7 9 10 9 7 8 10 11 11 10 6 4
0 0 0 0 0 0 1 2 3 4 5 6 6 8 9 9 9 10 10 11 14 17 18 16 14 14 15 14 12 10 10 10 8 5 4 4 5 5 7 8 8 8 7 8 10 11 10 8 6
0 0 0 0 0 0 0 1 3 5 5 5 4 5 8 10 9 9 8 9 12 16 19 19 19 19 20 18 16 12 11 10 8 5 4 5 5 4 5 6 8 9 9 9 10 10 9 9 9
0 0 0 0 0 0 0 1 3 4 4 4 4 4 8 11 12 11 10 9 12 16 19 20 20 21 21 20 18 15 11 9 7 5 5 5 4 4 4 5 7 8 9 10 9 9 9 9 9
0 0 0 0 0 0 0 1 3 5 4 4 5 5 7 10 12 12 12 11 12 15 18 19 18 18 18 18 16 14 11 8 6 6 6 5 4 3 3 4 6 7 8 8 7 7 8 8 8
0 0 0 0 0 0 0 1 3 5 5 5 5 4 5 8 10 11 13 14 13 13 14 16 17 18 17 16 14 12 11 8 7 6 6 6 5 4 3 4 5 6 6 6 5 5 6 8 9
0 0 0 0 0 0 0 0 2 4 6 6 6 4 5 6 8 10 13 14 14 13 13 14 17 18 18 16 14 12 12 10 8 7 7 7 6 4 3 3 4 4 4 4 4 4 5 7 9
0 0 0 0 0 0 0 0 1 2 4 5 6 5 5 7 9 10 12 13 14 14 15 17 18 18 17 15 14 14 13 11 9 7 7 7 7 5 4 3 3 3 3 3 4 3 4 6 6
0 0 0 0 0 0 0 0 0 1 1 3 5 6 6 8 9 10 11 12 14 15 17 19 20 17 13 12 14 15 13 11 10 8 7 6 5 5 4 3 3 3 3 4 4 3 3 4 5
0 0 0 0 0 0 0 0 0 0 0 1 2 4 6 7 9 10 10 11 13 15 17 19 20 16 11 9 12 14 12 10 8 8 7 5 4 4 4 4 3 3 3 3 2 1 2 4 6
0 0 0 0 0 0 0 0 0 0 0 1 1 2 4 6 9 10 10 10 13 16 17 19 19 17 13 11 12 12 10 6 5 6 6 5 4 3 3 3 3 3 3 2 1 0 1 4 6
0 0 0 0 0 0 0 0 0 0 0 1 2 2 3 5 8 9 9 11 14 17 18 19 19 17 15 14 13 11 8 5 4 5 6 5 4 3 2 3 3 3 3 2 1 0 1 2 3
0 0 0 0 0 0 0 0 0 0 0 1 2 3 3 5 7 9 9 12 16 19 18 18 17 16 14 14 12 9 8 7 6 6 5 4 3 3 3 3 3 3 3 3 2 1 0 1 1
0 0 0 0 0 0 0 1 1 1 1 2 3 2 2 3 6 8 10 13 17 18 17 16 15 13 11 10 10 8 7 7 6 6 5 5 5 4 4 4 4 4 4 4 3 1 0 0 0
0 0 0 0 0 0 0 1 2 2 2 3 3 2 1 2 5 8 10 12 16 17 15 14 13 10 9 9 9 8 6 5 6 6 6 6 6 6 5 5 5 5 4 4 3 1 0 0 0

GEFSSGP_con_prob3kmehi_228.txt.gz
EHI
0 0 0 0 0 0 0 0 0 0 0 0 0 0 1 3 4 6 9 18 29 32 29 30 30 24 17 14 14 17 19 17 13 9 8 7 7 8 10 11 11 10 9 8 9 9 10 9 7
0 0 0 0 0 0 0 0 0 0 0 0 0 1 2 3 5 6 8 17 29 32 29 29 29 23 17 14 14 15 17 16 13 11 9 8 7 7 9 11 11 10 9 8 7 8 9 8 6
0 0 0 0 0 0 0 0 0 0 0 0 1 2 3 4 5 6 7 15 26 31 31 31 30 24 18 15 14 14 15 13 11 9 9 10 9 8 10 12 11 9 9 8 7 7 7 6 5
0 0 0 0 0 0 0 0 0 0 0 1 2 3 4 5 6 6 6 11 22 29 31 32 33 28 20 15 14 15 13 12 9 7 7 10 11 12 13 13 11 9 8 8 8 6 5 5 4
0 0 0 0 0 0 0 0 1 1 1 2 3 4 6 5 6 6 7 10 18 25 27 30 34 31 22 16 15 15 14 13 11 7 7 10 13 15 17 15 11 9 7 7 7 6 4 3 3
0 0 0 0 0 1 0 0 1 2 2 3 3 5 7 6 6 8 9 9 13 19 23 27 30 28 22 17 16 16 16 16 14 11 8 10 13 16 17 17 13 10 7 6 6 5 3 1 1
0 0 0 0 0 0 0 0 1 2 2 3 4 6 8 8 9 12 13 10 11 16 20 21 22 21 18 15 15 16 17 17 16 12 9 8 9 11 14 16 14 9 6 4 4 4 3 2 1
0 0 0 0 0 0 0 1 2 2 2 3 5 8 10 11 12 16 17 14 14 17 18 16 15 13 13 14 15 16 17 18 16 11 7 5 4 5 9 13 14 10 5 3 3 4 4 4 3
0 0 0 0 0 1 2 3 3 3 4 6 9 11 12 10 10 15 19 19 18 19 18 16 13 10 10 13 15 15 16 17 16 10 7 5 3 4 7 13 18 16 9 6 4 5 6 6 5
0 0 0 0 1 2 3 3 2 3 5 7 11 13 14 12 10 13 17 20 21 20 18 15 13 10 10 12 13 13 13 15 13 9 10 10 8 8 10 17 23 21 13 8 5 6 7 6 6
0 0 0 1 2 3 3 2 1 2 4 7 10 12 14 15 13 12 15 20 22 20 17 14 13 13 12 12 13 12 12 12 11 10 13 14 13 13 15 19 24 21 14 10 8 8 6 5 5
0 1 1 2 3 2 1 1 1 1 3 5 8 10 13 15 15 13 15 19 22 22 19 17 16 17 16 14 14 14 11 10 11 16 19 17 15 15 17 20 21 18 14 12 11 9 6 4 4
1 1 2 2 2 1 0 0 0 1 3 6 7 9 11 13 15 16 18 23 26 29 28 24 22 23 22 19 16 15 13 12 15 20 23 20 17 18 20 21 21 18 15 14 12 9 7 6 5
0 1 2 1 1 0 0 0 0 2 6 7 8 8 10 12 15 20 25 31 35 37 36 30 26 26 25 21 16 15 15 17 19 22 21 19 20 21 20 20 20 18 15 15 13 10 9 9 8
0 0 0 0 0 0 0 0 1 4 7 8 8 8 9 12 16 24 32 38 41 42 40 33 25 24 24 20 16 16 16 17 21 22 19 18 20 22 20 17 14 14 14 14 14 12 11 10 9
0 0 0 0 0 0 0 1 4 7 7 6 7 7 10 14 19 26 33 38 41 42 40 33 26 25 26 23 21 19 17 18 21 22 20 17 18 20 20 16 11 10 10 11 12 12 11 10 8
0 0 0 0 0 0 0 2 6 7 7 5 6 9 13 17 21 26 32 37 39 39 38 34 31 30 29 28 26 23 21 20 22 23 21 19 18 18 18 15 11 10 9 10 10 10 10 9 6
0 0 0 0 0 0 1 5 6 6 5 5 8 13 18 21 23 28 33 35 36 36 35 34 34 33 32 31 30 27 25 24 23 24 23 21 18 16 15 13 10 9 10 10 9 9 10 8 5
0 0 0 0 0 0 2 5 6 5 6 6 10 17 22 25 28 32 36 36 34 35 34 33 33 32 30 30 29 28 27 26 25 23 21 20 18 15 12 9 8 8 9 10 9 8 8 6 4
1 1 0 0 0 1 2 4 4 5 6 8 12 17 23 27 31 34 36 35 32 32 31 32 32 29 27 27 26 26 27 26 24 21 20 18 16 13 9 7 7 8 8 9 9 8 6 4 3
0 0 0 0 0 1 2 3 3 4 5 7 9 13 17 23 28 30 31 31 28 26 26 28 31 30 28 26 25 24 24 23 22 20 20 18 15 11 8 6 7 8 8 8 8 7 6 4 3
0 0 0 0 0 1 2 2 3 4 4 5 5 6 9 15 21 24 26 26 24 22 23 25 29 30 29 28 26 25 23 21 19 18 17 15 13 10 7 6 7 8 8 7 7 7 7 4 3
0 0 0 0 0 0 1 1 2 4 5 5 3 3 4 9 15 20 22 22 22 21 21 23 25 28 28 27 28 27 24 20 17 16 14 12 11 9 7 6 7 7 8 7 7 7 6 4 3
0 0 0 0 0 0 0 1 2 3 5 5 4 2 3 7 12 17 19 21 21 21 21 20 21 23 24 25 26 26 23 20 18 16 12 10 9 9 8 7 7 7 7 7 7 7 5 4 3
0 0 0 0 0 0 1 3 4 3 2 3 3 3 5 7 11 15 18 21 21 21 20 20 20 21 21 22 23 23 21 18 18 16 11 8 7 8 9 8 8 7 7 6 6 5 4 3 3
0 0 0 0 0 0 2 5 6 3 1 1 2 5 7 9 12 14 17 20 21 20 20 20 20 20 20 20 20 20 19 16 15 15 10 7 7 8 9 9 9 8 7 6 5 4 3 3 3
0 0 0 0 0 0 2 5 5 3 2 2 4 6 9 12 14 15 16 18 19 19 20 21 20 20 20 19 19 19 17 13 11 12 10 7 7 8 9 9 8 7 6 5 5 4 4 4 4
0 0 0 0 0 0 1 3 4 3 3 4 6 7 9 11 12 13 15 17 18 19 21 21 19 19 19 19 18 17 14 10 9 9 9 8 9 9 9 9 7 6 6 6 6 5 5 5 5
0 0 0 0 0 0 0 2 4 5 5 5 6 6 7 7 7 10 12 15 17 19 20 19 18 17 17 17 17 15 12 9 8 7 8 9 9 10 9 8 7 6 6 6 6 6 6 6 5
0 0 0 0 0 0 0 2 5 6 7 6 5 5 6 4 5 7 10 13 17 19 18 18 17 16 15 16 16 15 13 11 8 7 7 9 10 10 9 8 7 6 6 6 6 6 6 6 6

GEFSSGP_con_prob3kmehi_234.txt.gz
EHI
0 0 0 0 0 0 0 0 0 0 0 0 0 2 4 5 4 4 5 7 10 12 16 26 35 41 42 37 30 27 25 20 16 15 15 19 22 21 17 15 13 12 11 9 8 7 6 6 6
0 0 0 0 0 0 0 0 0 0 0 0 1 3 6 6 4 5 6 7 9 11 15 25 35 40 40 37 32 28 26 21 16 13 13 17 21 20 18 14 11 10 9 8 8 6 5 5 5
0 0 0 0 0 0 0 0 1 2 2 1 1 3 6 6 5 6 7 8 9 10 15 25 35 38 37 35 31 28 24 20 15 11 10 13 17 18 17 13 9 7 7 6 4 3 3 4 4
0 0 0 0 0 0 0 1 3 4 3 1 2 4 6 7 7 9 11 10 8 8 15 26 35 38 35 31 28 25 22 19 16 12 9 9 10 12 13 11 9 7 6 4 2 1 1 2 3
0 0 0 0 0 0 1 3 5 5 4 3 4 5 8 11 13 14 13 11 9 9 15 26 35 38 34 28 24 22 20 18 18 14 9 6 4 5 9 10 9 7 6 4 1 1 1 2 3
0 0 0 0 0 0 1 3 5 5 4 4 5 7 9 14 19 17 13 11 12 14 17 23 30 32 30 24 20 19 19 19 19 16 10 5 3 3 7 10 9 6 5 4 1 2 3 4 4
0 0 0 0 0 0 1 3 4 4 4 4 6 7 8 13 18 18 15 13 14 16 19 21 21 22 21 19 16 16 17 17 17 16 12 8 4 3 6 10 8 6 4 3 3 3 4 4 4
0 0 0 0 0 0 1 2 3 4 5 5 5 6 5 8 14 18 19 17 15 14 16 17 14 13 13 14 13 14 14 14 14 14 13 9 5 4 6 8 7 6 4 3 3 3 4 5 5
0 0 0 0 0 0 0 1 3 5 6 6 6 4 4 9 15 20 21 19 15 11 10 12 10 9 10 11 13 13 12 12 12 14 12 8 4 3 3 6 7 7 5 4 4 4 5 5 5
0 0 0 0 0 0 1 1 3 5 7 7 5 5 8 13 18 21 21 20 15 9 6 6 7 8 9 10 11 12 11 9 11 11 9 5 2 1 1 4 7 8 7 6 5 5 4 3 3
0 0 0 0 0 1 2 2 3 3 4 5 5 7 11 15 19 19 19 19 14 8 4 4 5 7 7 7 8 8 7 6 5 6 5 3 2 1 1 2 4 7 8 8 7 6 4 2 1
0 0 0 0 0 1 3 3 2 2 2 4 6 7 9 13 16 17 17 16 14 10 7 4 4 5 5 5 5 5 4 3 2 1 1 2 2 2 2 1 1 4 8 9 7 5 3 2 1
0 0 0 0 0 2 3 4 4 4 5 7 7 7 8 10 14 16 17 16 16 14 10 6 4 4 4 5 6 5 4 2 1 0 0 1 1 2 3 2 1 3 6 8 7 4 3 3 3
0 0 0 0 0 1 3 5 7 9 10 10 7 7 8 10 12 15 16 17 18 17 13 9 6 4 4 6 6 6 4 3 2 1 0 1 1 1 2 2 2 2 4 6 6 4 3 3 3
0 0 0 0 0 1 3 6 8 11 12 10 7 7 8 9 12 15 16 19 20 18 16 14 10 7 6 6 7 6 5 3 3 1 1 2 2 1 1 1 1 1 2 3 3 3 3 2 3
0 0 0 0 0 1 3 4 7 11 12 10 9 9 10 11 14 17 20 20 20 19 18 16 14 10 8 9 9 9 7 5 4 3 3 3 3 2 1 1 1 1 1 1 1 1 2 3 3
0 0 0 0 0 2 2 3 6 9 11 11 11 13 15 17 19 22 23 22 21 20 20 19 16 13 12 12 13 12 11 8 7 6 5 5 5 4 3 2 2 2 2 1 0 0 1 2 2
0 0 0 0 0 1 2 2 5 7 10 11 12 15 20 22 23 24 25 25 23 22 22 21 18 17 16 16 16 15 13 10 9 9 8 8 7 6 4 3 3 3 3 2 1 0 0 1 1
0 0 0 1 1 1 1 2 4 6 8 11 13 16 21 23 23 25 26 25 23 22 21 21 20 19 19 18 17 16 13 11 10 10 10 9 8 6 5 4 4 4 4 3 2 1 0 0 0
0 0 0 1 2 1 0 1 3 4 6 10 13 16 19 21 23 24 24 21 19 19 19 19 19 19 19 18 18 16 13 11 10 10 10 9 8 6 6 5 5 5 4 4 3 1 1 1 0
0 0 0 1 1 1 0 1 2 3 4 7 11 14 16 19 21 21 20 18 15 16 17 17 17 17 17 16 16 15 13 11 9 9 9 9 7 6 6 6 5 4 4 3 3 3 2 2 1
0 0 0 0 0 0 0 0 1 2 3 5 9 12 14 15 17 18 19 17 14 15 17 17 16 16 16 15 14 14 12 10 8 8 7 7 6 5 6 5 4 3 3 3 3 3 3 3 3
0 0 0 0 0 0 0 0 0 1 3 5 8 9 11 12 13 15 18 17 15 15 18 18 17 16 16 15 14 13 11 9 7 7 6 4 3 3 4 4 3 3 3 3 2 3 3 3 3
0 0 0 0 0 0 0 0 0 0 1 4 6 7 7 8 10 12 16 17 16 16 17 18 16 16 15 15 14 12 10 8 7 6 5 3 2 2 3 3 3 3 3 2 1 2 3 3 3
0 0 0 0 0 0 0 0 0 0 1 3 5 5 5 6 8 11 15 16 16 16 15 15 15 14 13 13 13 12 10 8 7 5 4 3 3 3 3 3 3 3 3 3 2 2 3 3 3
0 0 0 0 0 0 0 0 0 0 1 3 4 5 6 8 10 12 14 15 15 14 13 13 13 12 11 11 11 10 9 7 6 4 3 3 3 3 3 3 3 3 3 3 3 3 3 2 1
0 0 0 0 0 0 0 0 0 1 1 3 4 5 7 10 12 12 13 13 12 12 13 12 11 9 9 8 8 8 7 7 6 4 3 3 3 3 3 3 3 3 3 3 3 3 2 1 0
0 0 0 0 0 0 0 0 1 2 3 3 4 4 6 10 12 12 11 10 9 9 10 10 8 7 7 7 6 6 6 6 6 4 3 3 3 2 2 2 2 2 2 2 2 1 1 0 0
0 0 0 0 0 0 0 0 1 3 3 3 3 3 5 7 9 9 9 8 6 6 7 7 7 6 6 6 6 6 6 6 5 3 2 2 1 1 1 1 1 1 1 1 1 0 0 0 0
0 0 0 0 0 0 0 1 2 3 3 3 3 4 5 5 6 6 7 6 5 5 6 6 6 6 5 5 6 6 5 4 4 2 1 1 0 0 0 0 0 0 0 0 0 0 0 0 0

GEFSSGP_con_prob3kmehi_240.txt.gz
EHI
3 1 0 0 0 0 0 0 0 0 0 1 2 2 3 2 1 0 1 3 6 11 16 21 24 27 29 31 32 36 42 43 41 36 33 31 28 22 18 17 16 13 12 10 8 6 6 8 11
1 0 0 0 0 0 0 0 0 1 1 1 2 2 2 2 1 1 2 4 8 12 15 20 24 27 29 30 30 32 35 36 35 34 31 28 26 22 18 16 14 13 12 11 8 6 6 8 9
0 0 0 0 0 0 0 0 0 1 1 1 1 1 1 2 2 2 3 6 10 12 15 20 25 28 29 30 28 27 27 27 27 27 26 24 22 20 18 15 12 11 11 11 8 5 5 6 6
0 0 0 0 0 0 0 0 0 1 1 0 0 0 1 2 3 4 5 8 11 13 15 21 28 30 29 29 28 25 23 22 20 20 22 21 20 18 16 14 11 9 10 9 7 5 5 5 5
0 0 0 0 0 0 0 1 1 1 0 0 1 1 1 3 4 5 5 7 10 12 14 20 29 32 29 27 27 24 21 19 18 18 19 19 19 17 14 12 9 7 7 7 6 5 5 6 7
0 0 0 0 0 0 1 2 2 1 1 1 2 2 3 3 5 5 4 5 8 11 13 16 23 27 27 26 25 22 19 18 17 17 17 15 15 14 11 8 7 6 5 5 6 5 6 7 7
0 0 0 0 0 0 1 1 1 1 1 1 2 3 3 4 4 4 4 5 6 8 9 10 12 16 20 22 21 20 17 15 13 13 13 12 10 8 7 6 7 6 4 4 5 5 5 5 5
0 0 0 0 0 0 0 0 0 0 0 1 1 2 4 5 4 4 5 6 6 6 6 5 5 6 10 13 15 17 14 11 9 9 9 9 7 5 5 7 9 8 5 5 5 5 4 4 4
0 0 0 0 0 0 0 0 0 0 0 0 1 3 5 7 7 7 7 6 5 4 4 4 3 4 5 6 8 11 10 8 7 6 6 7 7 6 6 8 9 8 5 4 4 4 4 4 4
0 0 0 0 0 0 0 0 0 0 0 0 2 6 9 10 9 8 6 5 3 2 3 3 3 4 5 5 4 5 5 5 5 5 5 5 6 8 8 9 10 10 7 5 4 4 6 7 6
0 0 0 0 0 1 1 1 0 0 0 1 5 10 14 13 10 7 4 2 2 2 3 4 4 3 4 4 4 4 4 3 3 4 4 4 5 7 8 10 12 12 11 8 7 7 9 9 7
0 0 0 0 0 1 2 1 0 1 1 3 8 15 17 14 10 7 4 2 2 3 5 6 5 3 3 3 4 4 4 4 4 4 4 3 4 4 5 7 9 11 12 11 10 10 9 8 6
0 0 0 0 0 1 1 0 1 1 2 5 11 14 15 13 11 9 6 3 3 3 4 5 4 3 3 3 3 4 4 4 4 4 4 4 4 3 2 4 5 8 10 11 11 11 8 6 5
0 0 0 0 0 0 0 0 1 1 3 7 9 10 11 12 11 9 7 5 4 4 4 3 2 2 3 3 3 3 3 3 3 4 5 5 5 4 2 2 3 5 7 9 10 9 7 5 5
0 0 0 0 0 0 0 0 1 2 3 5 5 6 8 10 10 8 7 7 7 6 4 3 1 1 1 2 1 1 2 2 2 3 4 5 5 4 2 1 1 3 4 6 7 7 6 5 4
0 0 0 0 0 0 0 0 1 1 2 3 3 4 7 9 9 8 8 9 9 8 5 3 2 0 0 0 0 0 1 1 2 3 3 4 4 3 2 1 1 2 3 3 3 4 4 4 4
0 0 0 0 0 0 0 0 0 0 0 1 2 4 7 10 10 10 11 10 10 9 6 3 1 0 0 0 0 1 2 2 3 3 3 3 3 3 3 2 2 2 2 2 1 2 3 4 4
0 0 0 0 0 0 0 0 0 0 0 0 1 3 7 9 9 10 11 12 11 11 9 5 2 1 1 1 1 2 3 3 3 3 3 3 3 3 3 3 3 3 3 2 2 2 2 3 3
0 0 0 0 0 0 0 1 1 1 0 1 1 2 4 6 7 8 10 12 13 11 10 8 5 4 4 4 4 3 3 3 3 3 2 2 2 2 2 2 2 2 2 2 2 2 2 1 1
0 0 0 0 0 0 0 1 2 1 0 1 1 1 2 5 7 9 11 13 12 10 11 11 8 6 6 6 5 4 3 3 2 1 1 1 1 1 1 1 1 1 1 1 1 1 1 1 0
0 0 0 0 0 0 0 1 1 0 0 0 0 0 2 4 7 10 12 13 11 9 11 12 9 6 6 6 5 4 3 2 1 1 0 0 1 1 0 0 0 1 1 1 1 2 2 2 1
0 0 0 0 0 0 0 0 0 0 0 0 0 0 1 4 7 10 12 13 12 9 9 9 7 6 6 6 6 5 4 3 2 2 1 1 2 2 1 1 1 2 2 2 2 2 3 3 2
0 0 0 0 0 0 0 0 0 0 0 0 0 0 1 4 7 8 10 11 11 8 6 5 5 5 6 8 8 7 5 4 3 3 1 1 2 2 2 2 3 3 3 3 3 3 3 3 3
0 0 0 0 0 0 0 0 0 0 0 0 0 1 2 5 6 7 8 9 9 7 6 6 5 6 8 10 9 8 6 4 3 3 2 2 1 1 2 2 3 3 3 3 3 3 3 3 3
0 0 0 0 0 0 0 0 0 0 0 0 1 2 4 5 5 6 8 8 7 6 7 7 8 9 10 8 6 6 5 4 3 2 2 1 0 0 1 1 1 2 2 3 3 3 3 3 3
0 0 0 0 0 0 0 0 0 0 0 0 1 4 5 5 4 5 8 8 7 7 7 8 8 8 7 5 3 3 3 3 2 1 1 0 0 0 0 0 1 1 2 2 3 3 2 2 2
0 0 0 0 0 0 0 0 0 0 0 0 2 5 6 4 4 6 8 8 8 8 8 8 7 6 4 2 2 2 2 3 2 1 1 0 0 0 0 0 1 2 2 2 2 1 1 1 2
0 0 0 0 0 0 0 0 0 0 0 0 2 4 5 4 4 6 7 8 7 7 7 7 7 4 3 1 1 1 2 2 2 2 1 0 0 0 0 0 1 1 1 1 1 0 0 1 2
0 0 0 0 0 0 0 0 0 0 0 1 2 3 4 4 4 5 5 5 5 4 4 4 4 3 2 1 0 0 1 1 1 1 1 0 0 0 0 0 0 0 0 0 0 0 0 1 1
0 0 0 0 0 0 0 0 0 0 1 2 3 3 4 4 4 4 4 4 4 4 3 3 2 1 1 0 0 0 0 0 0 0 0 0 0 0 0 0 0 0 0 0 0 0 0 0 0

GEFSSGP_con_prob3kmehi_246.txt.gz
EHI
0 0 0 0 0 0 0 0 0 0 0 0 0 1 2 3 4 4 2 2 7 12 16 22 27 24 18 16 18 22 20 17 15 16 18 19 18 16 12 9 7 5 3 1 0 0 1 0 0
0 0 0 0 0 0 0 0 0 0 0 0 0 1 2 2 3 2 2 2 6 11 16 22 28 26 21 19 20 23 21 16 14 16 18 19 18 16 12 10 10 8 4 1 0 0 1 1 2
0 0 0 0 0 0 0 0 0 0 0 0 0 0 1 1 1 2 2 2 4 8 14 23 27 25 23 23 22 22 22 17 14 16 20 20 19 17 13 12 12 11 6 3 1 1 2 4 6
0 0 0 0 0 0 0 0 0 0 0 0 0 0 0 1 2 3 3 2 3 5 12 21 25 22 20 21 21 21 22 19 16 16 20 22 21 19 16 13 11 11 8 4 1 1 4 6 7
0 0 0 0 0 0 0 0 0 0 0 0 0 0 1 3 5 6 5 2 2 4 9 17 20 17 14 14 16 18 20 21 18 17 20 20 20 20 17 12 9 9 8 6 2 2 5 7 7
0 0 0 0 0 0 0 0 0 0 0 0 0 1 3 8 10 8 4 2 1 3 7 12 14 14 11 9 9 14 18 20 20 18 17 16 15 15 13 9 8 9 9 8 4 3 5 6 7
0 0 0 0 0 0 0 0 0 0 1 0 0 1 4 10 13 9 4 2 2 4 6 8 9 9 8 5 7 12 16 18 18 16 14 12 10 8 8 8 9 10 11 9 5 3 2 3 4
0 0 0 0 0 0 0 0 0 0 0 0 0 0 5 12 15 11 7 4 3 5 6 5 5 6 5 4 7 10 12 12 12 10 10 8 5 4 5 7 9 9 9 8 6 3 2 1 2
0 0 0 0 0 0 0 0 0 0 0 0 0 1 8 16 18 14 11 8 6 6 5 4 4 5 4 4 5 6 6 5 5 5 4 4 3 2 3 4 6 6 6 6 7 7 4 2 2
0 0 0 0 0 0 0 0 0 0 0 0 2 6 14 20 20 16 13 10 8 7 6 4 4 5 4 4 4 3 2 1 1 1 1 2 3 3 3 3 5 5 5 5 8 8 5 2 1
0 0 0 0 0 0 0 0 0 0 0 0 4 13 21 23 20 15 11 9 8 7 5 4 5 5 4 4 3 2 0 0 0 0 1 3 5 5 5 6 6 6 5 5 6 7 5 2 1
0 0 0 0 0 0 0 0 0 0 0 1 6 16 23 22 18 13 9 7 6 5 4 3 5 7 6 4 2 1 0 0 0 0 1 2 4 4 5 7 6 5 5 5 5 6 6 3 2
0 0 0 0 0 0 0 0 0 1 1 3 9 16 19 17 15 11 8 7 7 6 5 6 8 9 8 6 3 1 1 1 0 0 0 1 2 2 3 5 5 4 4 5 4 5 6 5 4
0 0 0 0 0 0 0 0 1 2 3 6 11 15 15 14 13 11 10 10 9 7 8 10 12 13 11 8 6 3 2 1 0 0 0 1 1 1 2 4 4 3 3 4 4 5 6 6 7
0 0 0 0 0 0 0 0 2 3 5 7 9 12 13 13 12 12 13 12 9 8 9 11 13 14 12 9 6 3 1 1 1 1 2 3 3 3 4 5 4 3 2 3 5 5 6 7 7
0 0 0 0 0 0 0 1 3 4 5 6 8 9 11 12 10 11 12 11 10 10 11 11 11 12 11 9 7 5 3 3 3 3 4 6 6 7 7 6 5 4 4 4 6 6 6 6 6
0 0 0 0 0 0 0 1 4 4 4 6 7 8 9 9 8 8 9 9 10 11 13 13 11 11 10 10 9 9 7 6 4 4 6 7 9 10 9 8 8 7 6 5 6 6 7 7 7
0 0 0 0 0 0 0 1 3 3 4 6 7 7 7 7 8 8 9 10 11 12 14 16 16 15 15 14 13 12 11 8 6 5 7 8 10 11 11 10 9 9 7 7 6 5 6 7 7
0 0 0 0 0 0 0 1 2 3 5 6 6 6 6 7 8 10 11 13 14 14 17 21 23 25 25 21 17 14 12 10 7 7 9 9 9 12 12 11 10 9 9 8 6 5 6 7 7
0 0 0 0 0 0 0 1 2 3 4 5 5 6 5 6 9 11 14 15 15 16 19 23 27 30 30 25 19 15 12 10 8 8 10 9 9 10 11 10 9 8 8 6 4 4 5 7 7
0 0 0 0 0 0 0 1 2 3 2 3 4 5 4 6 10 13 15 16 16 16 18 22 27 30 31 27 21 15 11 9 8 11 13 12 10 8 8 7 6 5 4 3 3 3 5 6 7
0 0 0 0 0 0 0 0 1 2 1 2 4 4 4 6 10 14 16 16 17 16 17 21 27 31 31 27 22 17 11 8 8 12 15 15 11 8 6 5 4 3 2 3 3 3 4 5 7
0 0 0 0 0 0 0 0 1 2 2 2 3 4 5 6 9 13 14 16 18 18 19 22 26 29 30 27 24 19 13 9 10 12 14 13 10 8 6 5 5 4 3 4 4 3 3 4 5
0 0 0 0 0 0 0 0 1 2 2 2 2 4 6 7 8 10 11 14 18 20 21 22 24 27 27 24 23 20 15 12 12 12 11 10 7 7 6 6 5 4 4 4 4 4 3 3 4
0 0 0 0 0 0 0 1 1 1 1 2 3 4 6 7 8 8 9 13 19 21 21 21 23 25 24 22 20 19 16 13 12 11 9 7 5 5 6 6 6 5 4 4 3 3 2 2 2
0 0 0 0 0 0 1 1 1 0 1 2 3 4 6 7 8 8 10 13 18 20 20 21 21 22 22 21 19 17 13 11 10 9 7 6 5 5 6 6 5 4 3 2 1 1 1 1 1
0 0 0 0 0 0 1 1 1 0 0 1 3 4 5 6 7 8 10 13 15 17 19 19 19 20 20 19 17 15 11 9 8 6 6 5 4 5 6 4 3 2 1 1 0 0 0 0 0
0 0 0 0 0 0 0 1 1 0 0 2 3 4 4 5 7 10 12 14 16 18 18 17 16 17 17 16 14 11 9 8 7 5 4 3 3 4 4 2 0 0 0 0 0 0 0 0 0
0 0 0 0 0 0 0 0 1 1 1 2 3 3 4 6 9 11 14 16 19 19 17 14 13 13 13 11 8 6 5 6 6 4 4 3 3 2 2 1 0 0 0 0 0 0 0 0 0
0 0 0 0 0 0 0 0 1 2 2 2 2 3 5 8 10 12 14 16 20 20 16 13 11 11 10 7 5 4 3 4 5 4 4 4 3 2 1 0 0 0 0 0 0 0 0 0 0